| time (UTC) | temp F | wind direction | speed knots | gust knots | rain 1hr in | rain 24hr in | rain mn in | humidity % | barometer mb |
| 20260508115935 | 56 | 338 | 1.7 | 3.5 | 0.00 | 0.00 | 0.00 | ||
| 20260508115532 | 56 | 295 | 1.7 | 3.5 | 0.00 | 0.00 | 0.00 | ||
| 20260508115130 | 57 | 303 | 3.5 | 5.2 | 0.00 | 0.00 | 0.00 | ||
| 20260508114729 | 57 | 333 | 2.6 | 5.2 | 0.00 | 0.00 | 0.00 | ||
| 20260508114327 | 57 | 338 | 1.7 | 3.5 | 0.00 | 0.00 | 0.00 | ||
| 20260508113926 | 56 | 315 | 1.7 | 3.5 | 0.00 | 0.00 | 0.00 | ||
| 20260508113524 | 56 | 318 | 1.7 | 3.5 | 0.00 | 0.00 | 0.00 | ||
| 20260508113122 | 56 | 334 | 2.6 | 4.3 | 0.00 | 0.00 | 0.00 | ||
| 20260508112721 | 56 | 331 | 2.6 | 6.1 | 0.00 | 0.00 | 0.00 | ||
| 20260508112319 | 57 | 309 | 2.6 | 5.2 | 0.00 | 0.00 | 0.00 | ||
| 20260508111508 | 56 | 303 | 3.5 | 6.1 | 0.00 | 0.00 | 0.00 | ||
| 20260508111107 | 56 | 333 | 3.5 | 5.2 | 0.00 | 0.00 | 0.00 | ||
| 20260508110706 | 57 | 315 | 2.6 | 5.2 | 0.00 | 0.00 | 0.00 | ||
| 20260508110304 | 57 | 328 | 0.9 | 5.2 | 0.00 | 0.00 | 0.00 | ||
| 20260508105902 | 56 | 338 | 1.7 | 2.6 | 0.00 | 0.00 | 0.00 | ||
| 20260508105500 | 56 | 338 | 0.9 | 1.7 | 0.00 | 0.00 | 0.00 | ||
| 20260508105059 | 57 | 335 | 1.7 | 3.5 | 0.00 | 0.00 | 0.00 | ||
| 20260508104658 | 57 | 327 | 3.5 | 5.2 | 0.00 | 0.00 | 0.00 | ||
| 20260508104255 | 56 | 342 | 0.9 | 2.6 | 0.00 | 0.00 | 0.00 | ||
| 20260508103847 | 57 | 351 | 1.7 | 4.3 | 0.00 | 0.00 | 0.00 | ||
| 20260508103445 | 58 | 296 | 0.9 | 2.6 | 0.00 | 0.00 | 0.00 | ||
| 20260508102644 | 57 | 333 | 1.7 | 4.3 | 0.00 | 0.00 | 0.00 | ||
| 20260508102241 | 56 | 307 | 2.6 | 4.3 | 0.00 | 0.00 | 0.00 | ||
| 20260508101840 | 56 | 346 | 2.6 | 4.3 | 0.00 | 0.00 | 0.00 | ||
| 20260508101438 | 55 | 338 | 1.7 | 3.5 | 0.00 | 0.00 | 0.00 | ||
| 20260508101037 | 55 | 332 | 1.7 | 4.3 | 0.00 | 0.00 | 0.00 | ||
| 20260508100635 | 55 | 292 | 2.6 | 3.5 | 0.00 | 0.00 | 0.00 | ||
| 20260508100233 | 55 | 306 | 2.6 | 5.2 | 0.00 | 0.00 | 0.00 | ||
| 20260508095825 | 56 | 292 | 2.6 | 5.2 | 0.00 | 0.00 | 0.00 | ||
| 20260508095423 | 55 | 296 | 2.6 | 4.3 | 0.00 | 0.00 | 0.00 | ||
| 20260508095021 | 55 | 315 | 0.9 | 1.7 | 0.00 | 0.00 | 0.00 | ||
| 20260508094619 | 54 | 315 | 1.7 | 3.5 | 0.00 | 0.00 | 0.00 | ||
| 20260508094218 | 55 | 338 | 0.0 | 1.7 | 0.00 | 0.00 | 0.00 | ||
| 20260508093817 | 55 | 306 | 2.6 | 4.3 | 0.00 | 0.00 | 0.00 | ||
| 20260508093414 | 54 | 323 | 2.6 | 5.2 | 0.00 | 0.00 | 0.00 | ||
| 20260508093013 | 56 | 353 | 0.9 | 4.3 | 0.00 | 0.00 | 0.00 | ||
| 20260508092612 | 54 | 353 | 1.7 | 5.2 | 0.00 | 0.00 | 0.00 | ||
| 20260508092210 | 53 | 335 | 1.7 | 5.2 | 0.00 | 0.00 | 0.00 | ||
| 20260508091802 | 53 | 335 | 3.5 | 6.1 | 0.00 | 0.00 | 0.00 | ||
| 20260508091359 | 53 | 352 | 0.9 | 3.5 | 0.00 | 0.00 | 0.00 | ||
| 20260508090958 | 53 | 338 | 1.7 | 2.6 | 0.00 | 0.00 | 0.00 | ||
| 20260508090557 | 53 | 338 | 2.6 | 4.3 | 0.00 | 0.00 | 0.00 | ||
| 20260508090155 | 54 | 338 | 0.9 | 2.6 | 0.00 | 0.00 | 0.00 | ||
| 20260508085753 | 53 | 351 | 0.9 | 2.6 | 0.00 | 0.00 | 0.00 | ||
| 20260508085351 | 53 | 325 | 1.7 | 5.2 | 0.00 | 0.00 | 0.00 | ||
| 20260508084950 | 54 | 315 | 1.7 | 4.3 | 0.00 | 0.00 | 0.00 | ||
| 20260508084549 | 53 | 315 | 2.6 | 4.3 | 0.00 | 0.00 | 0.00 | ||
| 20260508084146 | 53 | 338 | 1.7 | 4.3 | 0.00 | 0.00 | 0.00 | ||
| 20260508083738 | 52 | 339 | 3.5 | 5.2 | 0.00 | 0.00 | 0.00 | ||
| 20260508083336 | 53 | 319 | 1.7 | 3.5 | 0.00 | 0.00 | 0.00 | ||
| 20260508082935 | 53 | 313 | 1.7 | 5.2 | 0.00 | 0.00 | 0.00 | ||
| 20260508082533 | 52 | 315 | 2.6 | 5.2 | 0.00 | 0.00 | 0.00 | ||
| 20260508082131 | 53 | 303 | 1.7 | 3.5 | 0.00 | 0.00 | 0.00 | ||
| 20260508081730 | 54 | 293 | 0.9 | 4.3 | 0.00 | 0.00 | 0.00 | ||
| 20260508081328 | 53 | 303 | 2.6 | 5.2 | 0.00 | 0.00 | 0.00 | ||
| 20260508080927 | 52 | 292 | 2.6 | 7.8 | 0.00 | 0.00 | 0.00 | ||
| 20260508080525 | 52 | 292 | 2.6 | 4.3 | 0.00 | 0.00 | 0.00 | ||
| 20260508080123 | 52 | 325 | 2.6 | 5.2 | 0.00 | 0.00 | 0.00 | ||
| 20260508075715 | 53 | 338 | 1.7 | 3.5 | 0.00 | 0.00 | 0.00 | ||
| 20260508075314 | 52 | 331 | 0.9 | 3.5 | 0.00 | 0.00 | 0.00 | ||
| 20260508074911 | 52 | 317 | 1.7 | 3.5 | 0.00 | 0.00 | 0.00 | ||
| 20260508074510 | 52 | 338 | 0.9 | 3.5 | 0.00 | 0.00 | 0.00 | ||
| 20260508074109 | 53 | 325 | 2.6 | 3.5 | 0.00 | 0.00 | 0.00 | ||
| 20260508073708 | 52 | 315 | 2.6 | 3.5 | 0.00 | 0.00 | 0.00 | ||
| 20260508073305 | 52 | 320 | 1.7 | 4.3 | 0.00 | 0.00 | 0.00 | ||
| 20260508072904 | 52 | 321 | 1.7 | 4.3 | 0.00 | 0.00 | 0.00 | ||
| 20260508072502 | 52 | 343 | 2.6 | 5.2 | 0.00 | 0.00 | 0.00 | ||
| 20260508072101 | 53 | 338 | 1.7 | 4.3 | 0.00 | 0.00 | 0.00 | ||
| 20260508071651 | 52 | 338 | 1.7 | 2.6 | 0.00 | 0.00 | 0.00 | ||
| 20260508071250 | 52 | 320 | 2.6 | 7.0 | 0.00 | 0.00 | 0.00 | ||
| 20260508070849 | 52 | 340 | 2.6 | 4.3 | 0.00 | 0.00 | 0.00 | ||
| 20260508070448 | 52 | 333 | 2.6 | 4.3 | 0.00 | 0.00 | 0.00 | ||
| 20260508070046 | 53 | 44 | 2.6 | 7.0 | 0.00 | 0.00 | 0.00 | ||
| 20260508065644 | 54 | 67 | 0.0 | 0.0 | 0.00 | 0.00 | 0.00 | ||
| 20260508065242 | 53 | 67 | 0.9 | 1.7 | 0.00 | 0.00 | 0.00 | ||
| 20260508064440 | 53 | 67 | 0.9 | 2.6 | 0.00 | 0.00 | 0.00 | ||
| 20260508064037 | 52 | 67 | 2.6 | 4.3 | 0.00 | 0.00 | 0.00 | ||
| 20260508063629 | 52 | 67 | 2.6 | 3.5 | 0.00 | 0.00 | 0.00 | ||
| 20260508063227 | 53 | 67 | 2.6 | 4.3 | 0.00 | 0.00 | 0.00 | ||
| 20260508062826 | 53 | 67 | 2.6 | 4.3 | 0.00 | 0.00 | 0.00 | ||
| 20260508062424 | 53 | 67 | 2.6 | 4.3 | 0.00 | 0.00 | 0.00 | ||
| 20260508062022 | 54 | 67 | 1.7 | 2.6 | 0.00 | 0.00 | 0.00 | ||
| 20260508061621 | 53 | 67 | 0.0 | 1.7 | 0.00 | 0.00 | 0.00 | ||
| 20260508061219 | 53 | 67 | 0.0 | 0.0 | 0.00 | 0.00 | 0.00 | ||
| 20260508060817 | 52 | 67 | 1.7 | 2.6 | 0.00 | 0.00 | 0.00 | ||
| 20260508060416 | 52 | 67 | 1.7 | 3.5 | 0.00 | 0.00 | 0.00 | ||
| 20260508060014 | 52 | 90 | 2.6 | 4.3 | 0.00 | 0.00 | 0.00 | ||
| 20260508055606 | 52 | 90 | 1.7 | 2.6 | 0.00 | 0.00 | 0.00 | ||
| 20260508055204 | 53 | 90 | 1.7 | 2.6 | 0.00 | 0.00 | 0.00 | ||
| 20260508054802 | 52 | 90 | 1.7 | 3.5 | 0.00 | 0.00 | 0.00 | ||
| 20260508054401 | 52 | 90 | 2.6 | 4.3 | 0.00 | 0.00 | 0.00 | ||
| 20260508053959 | 51 | 92 | 3.5 | 4.3 | 0.00 | 0.00 | 0.00 | ||
| 20260508053558 | 52 | 111 | 0.9 | 1.7 | 0.00 | 0.00 | 0.00 | ||
| 20260508053155 | 52 | 111 | 0.0 | 0.9 | 0.00 | 0.00 | 0.00 | ||
| 20260508052754 | 52 | 111 | 0.0 | 1.7 | 0.00 | 0.00 | 0.00 | ||
| 20260508052353 | 53 | 111 | 0.9 | 2.6 | 0.00 | 0.00 | 0.00 | ||
| 20260508051952 | 53 | 98 | 1.7 | 3.5 | 0.00 | 0.00 | 0.00 | ||
| 20260508051542 | 52 | 67 | 2.6 | 4.3 | 0.00 | 0.00 | 0.00 | ||
| 20260508051141 | 51 | 66 | 2.6 | 5.2 | 0.00 | 0.00 | 0.00 | ||
| 20260508050740 | 51 | 11 | 2.6 | 4.3 | 0.00 | 0.00 | 0.00 | ||
| 20260508050339 | 51 | 30 | 1.7 | 4.3 | 0.00 | 0.00 | 0.00 | ||
| 20260508045936 | 51 | 63 | 3.5 | 7.0 | 0.00 | 0.00 | 0.00 | ||
| 20260508045535 | 51 | 345 | 2.6 | 4.3 | 0.00 | 0.00 | 0.00 | ||
| 20260508045133 | 51 | 310 | 3.5 | 7.8 | 0.00 | 0.00 | 0.00 | ||
| 20260508044732 | 51 | 326 | 3.5 | 6.1 | 0.00 | 0.00 | 0.00 | ||
| 20260508044331 | 51 | 312 | 3.5 | 7.0 | 0.00 | 0.00 | 0.00 | ||
| 20260508043928 | 51 | 317 | 2.6 | 3.5 | 0.00 | 0.00 | 0.00 | ||
| 20260508043520 | 51 | 314 | 2.6 | 4.3 | 0.00 | 0.00 | 0.00 | ||
| 20260508043118 | 51 | 295 | 4.3 | 7.0 | 0.00 | 0.00 | 0.00 | ||
| 20260508042315 | 52 | 306 | 4.3 | 7.0 | 0.00 | 0.00 | 0.00 | ||
| 20260508041913 | 52 | 302 | 3.5 | 7.8 | 0.00 | 0.00 | 0.00 | ||
| 20260508041512 | 51 | 295 | 3.5 | 6.1 | 0.00 | 0.00 | 0.00 | ||
| 20260508041110 | 51 | 310 | 3.5 | 6.1 | 0.00 | 0.00 | 0.00 | ||
| 20260508040708 | 51 | 303 | 3.5 | 7.0 | 0.00 | 0.00 | 0.00 | ||
| 20260508040307 | 51 | 305 | 5.2 | 7.8 | 0.00 | 0.00 | 0.00 | ||
| 20260508035905 | 51 | 299 | 3.5 | 6.1 | 0.00 | 0.00 | 0.00 | ||
| 20260508035457 | 51 | 309 | 4.3 | 7.0 | 0.00 | 0.00 | 0.00 | ||
| 20260508035054 | 52 | 318 | 3.5 | 7.0 | 0.00 | 0.00 | 0.00 | ||
| 20260508034653 | 51 | 295 | 5.2 | 7.0 | 0.00 | 0.00 | 0.00 | ||
| 20260508034252 | 52 | 305 | 4.3 | 7.8 | 0.00 | 0.00 | 0.00 | ||
| 20260508033850 | 52 | 311 | 4.3 | 7.8 | 0.00 | 0.00 | 0.00 | ||
| 20260508033450 | 52 | 301 | 2.6 | 4.3 | 0.00 | 0.00 | 0.00 | ||
| 20260508033046 | 52 | 298 | 4.3 | 6.1 | 0.00 | 0.00 | 0.00 | ||
| 20260508032645 | 52 | 295 | 2.6 | 4.3 | 0.00 | 0.00 | 0.00 | ||
| 20260508032245 | 52 | 307 | 2.6 | 5.2 | 0.00 | 0.00 | 0.00 | ||
| 20260508031843 | 52 | 292 | 3.5 | 6.1 | 0.00 | 0.00 | 0.00 | ||
| 20260508031434 | 52 | 297 | 4.3 | 8.7 | 0.00 | 0.00 | 0.00 | ||
| 20260508031032 | 52 | 292 | 2.6 | 4.3 | 0.00 | 0.00 | 0.00 | ||
| 20260508030631 | 52 | 304 | 3.5 | 5.2 | 0.00 | 0.00 | 0.00 | ||
| 20260508030230 | 53 | 302 | 2.6 | 5.2 | 0.00 | 0.00 | 0.00 | ||
| 20260508025827 | 53 | 292 | 3.5 | 6.1 | 0.00 | 0.00 | 0.00 | ||
| 20260508025426 | 52 | 292 | 2.6 | 3.5 | 0.00 | 0.00 | 0.00 | ||
| 20260508024622 | 52 | 292 | 2.6 | 5.2 | 0.00 | 0.00 | 0.00 | ||
| 20260508024220 | 52 | 292 | 2.6 | 4.3 | 0.00 | 0.00 | 0.00 | ||
| 20260508023818 | 53 | 292 | 2.6 | 4.3 | 0.00 | 0.00 | 0.00 | ||
| 20260508023410 | 52 | 292 | 3.5 | 6.1 | 0.00 | 0.00 | 0.00 | ||
| 20260508023008 | 52 | 292 | 2.6 | 3.5 | 0.00 | 0.00 | 0.00 | ||
| 20260508022607 | 53 | 289 | 1.7 | 3.5 | 0.00 | 0.00 | 0.00 | ||
| 20260508022205 | 53 | 292 | 2.6 | 3.5 | 0.00 | 0.00 | 0.00 | ||
| 20260508021803 | 53 | 292 | 0.0 | 1.7 | 0.00 | 0.00 | 0.00 | ||
| 20260508021402 | 53 | 292 | 0.0 | 1.7 | 0.00 | 0.00 | 0.00 | ||
| 20260508021000 | 53 | 292 | 0.0 | 0.9 | 0.00 | 0.00 | 0.00 | ||
| 20260508020558 | 53 | 292 | 0.9 | 1.7 | 0.00 | 0.00 | 0.00 | ||
| 20260508020157 | 53 | 292 | 1.7 | 2.6 | 0.00 | 0.00 | 0.00 | ||
| 20260508015755 | 53 | 292 | 0.0 | 1.7 | 0.00 | 0.00 | 0.00 | ||
| 20260508015347 | 53 | 292 | 0.9 | 2.6 | 0.00 | 0.00 | 0.00 | ||
| 20260508014944 | 54 | 292 | 0.9 | 3.5 | 0.00 | 0.00 | 0.00 | ||
| 20260508014543 | 53 | 292 | 2.6 | 4.3 | 0.00 | 0.00 | 0.00 | ||
| 20260508014142 | 54 | 311 | 1.7 | 2.6 | 0.00 | 0.00 | 0.00 | ||
| 20260508013740 | 54 | 315 | 0.9 | 1.7 | 0.00 | 0.00 | 0.00 | ||
| 20260508013338 | 54 | 315 | 0.0 | 1.7 | 0.00 | 0.00 | 0.00 | ||
| 20260508012936 | 53 | 315 | 0.0 | 0.0 | 0.00 | 0.00 | 0.00 | ||
| 20260508012535 | 54 | 315 | 0.0 | 0.0 | 0.00 | 0.00 | 0.00 | ||
| 20260508012134 | 53 | 315 | 0.0 | 0.0 | 0.00 | 0.00 | 0.00 | ||
| 20260508011732 | 53 | 315 | 0.0 | 0.9 | 0.00 | 0.00 | 0.00 | ||
| 20260508011323 | 53 | 315 | 0.0 | 1.7 | 0.00 | 0.00 | 0.00 | ||
| 20260508010921 | 53 | 315 | 0.9 | 1.7 | 0.00 | 0.00 | 0.00 | ||
| 20260508010520 | 53 | 315 | 0.9 | 2.6 | 0.00 | 0.00 | 0.00 | ||
| 20260508010119 | 53 | 313 | 3.5 | 6.1 | 0.00 | 0.00 | 0.00 | ||
| 20260508005716 | 53 | 302 | 3.5 | 7.8 | 0.00 | 0.00 | 0.00 | ||
| 20260508005315 | 53 | 292 | 1.7 | 4.3 | 0.00 | 0.00 | 0.00 | ||
| 20260508004913 | 53 | 313 | 2.6 | 7.0 | 0.00 | 0.00 | 0.00 | ||
| 20260508004513 | 53 | 308 | 3.5 | 7.0 | 0.00 | 0.00 | 0.00 | ||
| 20260508004110 | 53 | 321 | 2.6 | 5.2 | 0.00 | 0.00 | 0.00 | ||
| 20260508003708 | 53 | 303 | 2.6 | 5.2 | 0.00 | 0.00 | 0.00 | ||
| 20260508003300 | 53 | 315 | 2.6 | 5.2 | 0.00 | 0.00 | 0.00 | ||
| 20260508002858 | 53 | 296 | 3.5 | 5.2 | 0.00 | 0.00 | 0.00 | ||
| 20260508002456 | 53 | 308 | 2.6 | 4.3 | 0.00 | 0.00 | 0.00 | ||
| 20260508002055 | 53 | 292 | 2.6 | 3.5 | 0.00 | 0.00 | 0.00 | ||
| 20260508001653 | 53 | 292 | 2.6 | 4.3 | 0.00 | 0.00 | 0.00 | ||
| 20260508001252 | 54 | 292 | 0.0 | 1.7 | 0.00 | 0.00 | 0.00 | ||
| 20260508000850 | 54 | 292 | 0.9 | 3.5 | 0.00 | 0.00 | 0.00 | ||
| 20260508000450 | 53 | 292 | 2.6 | 4.3 | 0.00 | 0.00 | 0.00 | ||
| 20260508000047 | 54 | 311 | 1.7 | 3.5 | 0.00 | 0.00 | 0.00 | ||
| 20260507235646 | 53 | 293 | 2.6 | 4.3 | 0.00 | 0.00 | 0.00 | ||
| 20260507235238 | 53 | 307 | 2.6 | 6.1 | 0.00 | 0.00 | 0.00 | ||
| 20260507234835 | 54 | 297 | 2.6 | 7.0 | 0.00 | 0.00 | 0.00 | ||
| 20260507234434 | 54 | 296 | 4.3 | 6.1 | 0.00 | 0.00 | 0.00 | ||
| 20260507234033 | 54 | 297 | 4.3 | 7.8 | 0.00 | 0.00 | 0.00 | ||
| 20260507233631 | 54 | 293 | 4.3 | 8.7 | 0.00 | 0.00 | 0.00 | ||
| 20260507233229 | 54 | 292 | 3.5 | 7.0 | 0.00 | 0.00 | 0.00 | ||
| 20260507232827 | 54 | 292 | 3.5 | 6.1 | 0.00 | 0.00 | 0.00 | ||
| 20260507232426 | 54 | 292 | 5.2 | 7.0 | 0.00 | 0.00 | 0.00 | ||
| 20260507232025 | 54 | 292 | 3.5 | 5.2 | 0.00 | 0.00 | 0.00 | ||
| 20260507231622 | 55 | 284 | 3.5 | 6.1 | 0.00 | 0.00 | 0.00 | ||
| 20260507231214 | 54 | 292 | 3.5 | 5.2 | 0.00 | 0.00 | 0.00 | ||
| 20260507230812 | 55 | 304 | 2.6 | 5.2 | 0.00 | 0.00 | 0.00 | ||
| 20260507230411 | 55 | 338 | 1.7 | 3.5 | 0.00 | 0.00 | 0.00 | ||
| 20260507230010 | 55 | 338 | 2.6 | 3.5 | 0.00 | 0.00 | 0.00 | ||
| 20260507225607 | 55 | 338 | 0.0 | 1.7 | 0.00 | 0.00 | 0.00 | ||
| 20260507225206 | 55 | 338 | 0.0 | 0.0 | 0.00 | 0.00 | 0.00 | ||
| 20260507224804 | 55 | 338 | 0.9 | 1.7 | 0.00 | 0.00 | 0.00 | ||
| 20260507224403 | 55 | 338 | 1.7 | 2.6 | 0.00 | 0.00 | 0.00 | ||
| 20260507224001 | 55 | 338 | 1.7 | 3.5 | 0.00 | 0.00 | 0.00 | ||
| 20260507223559 | 54 | 338 | 2.6 | 4.3 | 0.00 | 0.00 | 0.00 | ||
| 20260507223151 | 55 | 315 | 1.7 | 3.5 | 0.00 | 0.00 | 0.00 | ||
| 20260507222750 | 55 | 315 | 1.7 | 4.3 | 0.00 | 0.00 | 0.00 | ||
| 20260507222347 | 55 | 335 | 2.6 | 4.3 | 0.00 | 0.00 | 0.00 | ||
| 20260507221946 | 55 | 316 | 3.5 | 6.1 | 0.00 | 0.00 | 0.00 | ||
| 20260507221544 | 55 | 329 | 3.5 | 5.2 | 0.00 | 0.00 | 0.00 | ||
| 20260507221143 | 55 | 357 | 1.7 | 5.2 | 0.00 | 0.00 | 0.00 | ||
| 20260507220740 | 55 | 0 | 1.7 | 3.5 | 0.00 | 0.00 | 0.00 | ||
| 20260507220339 | 55 | 357 | 1.7 | 3.5 | 0.00 | 0.00 | 0.00 | ||
| 20260507215938 | 55 | 326 | 3.5 | 6.1 | 0.00 | 0.00 | 0.00 | ||
| 20260507215536 | 55 | 321 | 3.5 | 7.0 | 0.00 | 0.00 | 0.00 | ||
| 20260507215127 | 55 | 315 | 3.5 | 6.1 | 0.00 | 0.00 | 0.00 | ||
| 20260507214724 | 55 | 292 | 2.6 | 4.3 | 0.00 | 0.00 | 0.00 | ||
| 20260507214323 | 55 | 292 | 2.6 | 4.3 | 0.00 | 0.00 | 0.00 | ||
| 20260507213922 | 55 | 292 | 1.7 | 4.3 | 0.00 | 0.00 | 0.00 | ||
| 20260507213521 | 55 | 289 | 3.5 | 6.1 | 0.00 | 0.00 | 0.00 | ||
| 20260507213118 | 56 | 292 | 3.5 | 4.3 | 0.00 | 0.00 | 0.00 | ||
| 20260507212717 | 56 | 289 | 3.5 | 4.3 | 0.00 | 0.00 | 0.00 | ||
| 20260507212316 | 57 | 290 | 3.5 | 5.2 | 0.00 | 0.00 | 0.00 | ||
| 20260507211914 | 57 | 291 | 4.3 | 7.8 | 0.00 | 0.00 | 0.00 | ||
| 20260507211511 | 57 | 290 | 4.3 | 6.1 | 0.00 | 0.00 | 0.00 | ||
| 20260507211103 | 58 | 292 | 2.6 | 5.2 | 0.00 | 0.00 | 0.00 | ||
| 20260507210702 | 58 | 292 | 2.6 | 5.2 | 0.00 | 0.00 | 0.00 | ||
| 20260507210301 | 58 | 292 | 1.7 | 3.5 | 0.00 | 0.00 | 0.00 | ||
| 20260507205858 | 58 | 299 | 2.6 | 5.2 | 0.00 | 0.00 | 0.00 | ||
| 20260507205457 | 58 | 299 | 2.6 | 5.2 | 0.00 | 0.00 | 0.00 | ||
| 20260507205056 | 58 | 315 | 1.7 | 3.5 | 0.00 | 0.00 | 0.00 | ||
| 20260507204654 | 59 | 307 | 2.6 | 3.5 | 0.00 | 0.00 | 0.00 | ||
| 20260507204253 | 59 | 299 | 1.7 | 5.2 | 0.00 | 0.00 | 0.00 | ||
| 20260507203851 | 59 | 316 | 2.6 | 3.5 | 0.00 | 0.00 | 0.00 | ||
| 20260507203449 | 59 | 292 | 1.7 | 1.7 | 0.00 | 0.00 | 0.00 | ||
| 20260507203041 | 59 | 309 | 2.6 | 4.3 | 0.00 | 0.00 | 0.00 | ||
| 20260507202639 | 59 | 325 | 1.7 | 4.3 | 0.00 | 0.00 | 0.00 | ||
| 20260507202237 | 59 | 315 | 2.6 | 4.3 | 0.00 | 0.00 | 0.00 | ||
| 20260507201836 | 59 | 315 | 2.6 | 5.2 | 0.00 | 0.00 | 0.00 | ||
| 20260507201434 | 59 | 292 | 0.9 | 3.5 | 0.00 | 0.00 | 0.00 | ||
| 20260507201032 | 59 | 307 | 1.7 | 4.3 | 0.00 | 0.00 | 0.00 | ||
| 20260507200629 | 60 | 338 | 0.9 | 2.6 | 0.00 | 0.00 | 0.00 | ||
| 20260507200228 | 59 | 338 | 0.0 | 1.7 | 0.00 | 0.00 | 0.00 | ||
| 20260507195827 | 59 | 338 | 0.0 | 0.0 | 0.00 | 0.00 | 0.00 | ||
| 20260507195426 | 59 | 338 | 0.0 | 1.7 | 0.00 | 0.00 | 0.00 | ||
| 20260507195016 | 60 | 338 | 0.0 | 1.7 | 0.00 | 0.00 | 0.00 | ||
| 20260507194615 | 60 | 338 | 0.0 | 0.0 | 0.00 | 0.00 | 0.00 | ||
| 20260507194214 | 59 | 338 | 0.0 | 1.7 | 0.00 | 0.00 | 0.00 | ||
| 20260507193813 | 58 | 343 | 1.7 | 4.3 | 0.00 | 0.00 | 0.00 | ||
| 20260507193411 | 59 | 338 | 1.7 | 3.5 | 0.00 | 0.00 | 0.00 | ||
| 20260507193008 | 59 | 340 | 2.6 | 3.5 | 0.00 | 0.00 | 0.00 | ||
| 20260507192607 | 59 | 345 | 2.6 | 3.5 | 0.00 | 0.00 | 0.00 | ||
| 20260507192206 | 59 | 316 | 2.6 | 5.2 | 0.00 | 0.00 | 0.00 | ||
| 20260507191805 | 59 | 351 | 1.7 | 4.3 | 0.00 | 0.00 | 0.00 | ||
| 20260507191402 | 59 | 342 | 2.6 | 5.2 | 0.00 | 0.00 | 0.00 | ||
| 20260507190954 | 59 | 345 | 2.6 | 3.5 | 0.00 | 0.00 | 0.00 | ||
| 20260507190552 | 59 | 304 | 1.7 | 7.0 | 0.00 | 0.00 | 0.00 | ||
| 20260507190151 | 58 | 324 | 3.5 | 6.1 | 0.00 | 0.00 | 0.00 | ||
| 20260507185749 | 60 | 328 | 3.5 | 7.0 | 0.00 | 0.00 | 0.00 | ||
| 20260507185347 | 61 | 306 | 5.2 | 8.7 | 0.00 | 0.00 | 0.00 | ||
| 20260507184946 | 61 | 318 | 5.2 | 8.7 | 0.00 | 0.00 | 0.00 | ||
| 20260507184544 | 62 | 297 | 3.5 | 8.7 | 0.00 | 0.00 | 0.00 | ||
| 20260507184142 | 62 | 279 | 3.5 | 5.2 | 0.00 | 0.00 | 0.00 | ||
| 20260507183741 | 62 | 275 | 3.5 | 7.8 | 0.00 | 0.00 | 0.00 | ||
| 20260507183339 | 61 | 296 | 5.2 | 8.7 | 0.00 | 0.00 | 0.00 | ||
| 20260507182931 | 63 | 136 | 3.5 | 5.2 | 0.00 | 0.00 | 0.00 | ||
| 20260507182529 | 64 | 138 | 3.5 | 5.2 | 0.00 | 0.00 | 0.00 | ||
| 20260507182127 | 64 | 145 | 3.5 | 6.1 | 0.00 | 0.00 | 0.00 | ||
| 20260507181726 | 64 | 144 | 2.6 | 4.3 | 0.00 | 0.00 | 0.00 | ||
| 20260507181324 | 64 | 144 | 3.5 | 6.1 | 0.00 | 0.00 | 0.00 | ||
| 20260507180923 | 64 | 157 | 4.3 | 5.2 | 0.00 | 0.00 | 0.00 | ||
| 20260507180521 | 64 | 159 | 6.1 | 8.7 | 0.00 | 0.00 | 0.00 | ||
| 20260507180119 | 64 | 153 | 4.3 | 7.0 | 0.00 | 0.00 | 0.00 | ||
| 20260507175719 | 65 | 176 | 5.2 | 7.0 | 0.00 | 0.00 | 0.00 | ||
| 20260507175317 | 65 | 157 | 4.3 | 6.1 | 0.00 | 0.00 | 0.00 | ||
| 20260507174908 | 66 | 135 | 1.7 | 3.5 | 0.00 | 0.00 | 0.00 | ||
| 20260507174506 | 66 | 135 | 0.9 | 3.5 | 0.00 | 0.00 | 0.00 | ||
| 20260507174105 | 64 | 135 | 0.0 | 0.9 | 0.00 | 0.00 | 0.00 | ||
| 20260507173704 | 65 | 135 | 1.7 | 2.6 | 0.00 | 0.00 | 0.00 | ||
| 20260507173301 | 65 | 139 | 4.3 | 7.0 | 0.00 | 0.00 | 0.00 | ||
| 20260507172900 | 66 | 135 | 3.5 | 7.0 | 0.00 | 0.00 | 0.00 | ||
| 20260507172458 | 66 | 128 | 5.2 | 7.0 | 0.00 | 0.00 | 0.00 | ||
| 20260507172057 | 67 | 132 | 4.3 | 6.1 | 0.00 | 0.00 | 0.00 | ||
| 20260507171656 | 66 | 121 | 3.5 | 5.2 | 0.00 | 0.00 | 0.00 | ||
| 20260507171253 | 67 | 110 | 3.5 | 5.2 | 0.00 | 0.00 | 0.00 | ||
| 20260507170845 | 67 | 135 | 4.3 | 7.8 | 0.00 | 0.00 | 0.00 | ||
| 20260507170443 | 66 | 136 | 4.3 | 8.7 | 0.00 | 0.00 | 0.00 | ||
| 20260507165238 | 65 | 140 | 5.2 | 8.7 | 0.00 | 0.00 | 0.00 | ||
| 20260507164837 | 65 | 138 | 5.2 | 7.0 | 0.00 | 0.00 | 0.00 | ||
| 20260507164436 | 65 | 136 | 5.2 | 7.8 | 0.00 | 0.00 | 0.00 | ||
| 20260507164033 | 65 | 144 | 6.1 | 8.7 | 0.00 | 0.00 | 0.00 | ||
| 20260507163632 | 65 | 145 | 6.1 | 10.4 | 0.00 | 0.00 | 0.00 | ||
| 20260507163231 | 65 | 146 | 7.0 | 11.3 | 0.00 | 0.00 | 0.00 | ||
| 20260507162823 | 65 | 145 | 6.1 | 9.6 | 0.00 | 0.00 | 0.00 | ||
| 20260507162420 | 66 | 147 | 6.1 | 9.6 | 0.00 | 0.00 | 0.00 | ||
| 20260507162019 | 66 | 141 | 4.3 | 7.0 | 0.00 | 0.00 | 0.00 | ||
| 20260507161618 | 65 | 135 | 3.5 | 5.2 | 0.00 | 0.00 | 0.00 | ||
| 20260507161216 | 65 | 136 | 5.2 | 7.8 | 0.00 | 0.00 | 0.00 | ||
| 20260507160815 | 66 | 139 | 4.3 | 7.0 | 0.00 | 0.00 | 0.00 | ||
| 20260507160412 | 66 | 138 | 5.2 | 7.8 | 0.00 | 0.00 | 0.00 | ||
| 20260507155610 | 66 | 136 | 5.2 | 8.7 | 0.00 | 0.00 | 0.00 | ||
| 20260507155208 | 66 | 135 | 4.3 | 7.0 | 0.00 | 0.00 | 0.00 | ||
| 20260507154759 | 67 | 126 | 6.1 | 8.7 | 0.00 | 0.00 | 0.00 | ||
| 20260507154357 | 68 | 139 | 3.5 | 6.1 | 0.00 | 0.00 | 0.00 | ||
| 20260507153956 | 69 | 175 | 3.5 | 5.2 | 0.00 | 0.00 | 0.00 | ||
| 20260507153555 | 69 | 202 | 3.5 | 5.2 | 0.00 | 0.00 | 0.00 | ||
| 20260507153152 | 69 | 202 | 3.5 | 5.2 | 0.00 | 0.00 | 0.00 | ||
| 20260507152751 | 68 | 202 | 4.3 | 7.0 | 0.00 | 0.00 | 0.00 | ||
| 20260507152349 | 68 | 202 | 5.2 | 8.7 | 0.00 | 0.00 | 0.00 | ||
| 20260507151948 | 69 | 202 | 4.3 | 7.0 | 0.00 | 0.00 | 0.00 | ||
| 20260507151546 | 68 | 211 | 5.2 | 8.7 | 0.00 | 0.00 | 0.00 | ||
| 20260507151144 | 68 | 222 | 4.3 | 7.0 | 0.00 | 0.00 | 0.00 | ||
| 20260507150736 | 68 | 218 | 4.3 | 9.6 | 0.00 | 0.00 | 0.00 | ||
| 20260507150335 | 68 | 220 | 4.3 | 7.0 | 0.00 | 0.00 | 0.00 | ||
| 20260507145934 | 68 | 216 | 5.2 | 9.6 | 0.00 | 0.00 | 0.00 | ||
| 20260507145532 | 69 | 213 | 4.3 | 7.8 | 0.00 | 0.00 | 0.00 | ||
| 20260507145130 | 69 | 230 | 2.6 | 6.1 | 0.00 | 0.00 | 0.00 | ||
| 20260507144729 | 69 | 221 | 4.3 | 7.8 | 0.00 | 0.00 | 0.00 | ||
| 20260507144327 | 69 | 225 | 4.3 | 7.0 | 0.00 | 0.00 | 0.00 | ||
| 20260507143925 | 69 | 234 | 4.3 | 7.8 | 0.00 | 0.00 | 0.00 | ||
| 20260507143524 | 69 | 233 | 5.2 | 7.8 | 0.00 | 0.00 | 0.00 | ||
| 20260507143122 | 69 | 230 | 3.5 | 6.1 | 0.00 | 0.00 | 0.00 | ||
| 20260507142714 | 69 | 240 | 3.5 | 7.0 | 0.00 | 0.00 | 0.00 | ||
| 20260507142311 | 69 | 228 | 3.5 | 7.8 | 0.00 | 0.00 | 0.00 | ||
| 20260507141509 | 69 | 224 | 5.2 | 8.7 | 0.00 | 0.00 | 0.00 | ||
| 20260507141107 | 69 | 215 | 5.2 | 8.7 | 0.00 | 0.00 | 0.00 | ||
| 20260507140705 | 69 | 202 | 3.5 | 6.1 | 0.00 | 0.00 | 0.00 | ||
| 20260507140303 | 70 | 221 | 2.6 | 5.2 | 0.00 | 0.00 | 0.00 | ||
| 20260507135902 | 69 | 225 | 2.6 | 5.2 | 0.00 | 0.00 | 0.00 | ||
| 20260507135059 | 69 | 225 | 2.6 | 5.2 | 0.00 | 0.00 | 0.00 | ||
| 20260507134650 | 68 | 219 | 2.6 | 7.0 | 0.00 | 0.00 | 0.00 | ||
| 20260507134248 | 69 | 212 | 5.2 | 8.7 | 0.00 | 0.00 | 0.00 | ||
| 20260507133847 | 68 | 224 | 4.3 | 7.0 | 0.00 | 0.00 | 0.00 | ||
| 20260507133446 | 68 | 242 | 7.0 | 11.3 | 0.00 | 0.00 | 0.00 | ||
| 20260507133043 | 69 | 218 | 8.7 | 12.2 | 0.00 | 0.00 | 0.00 | ||
| 20260507132642 | 70 | 222 | 5.2 | 7.8 | 0.00 | 0.00 | 0.00 | ||
| 20260507132240 | 70 | 241 | 5.2 | 9.6 | 0.00 | 0.00 | 0.00 | ||
| 20260507131840 | 70 | 245 | 6.1 | 7.8 | 0.00 | 0.00 | 0.00 | ||
| 20260507131437 | 70 | 255 | 4.3 | 7.8 | 0.00 | 0.00 | 0.00 | ||
| 20260507131035 | 71 | 246 | 5.2 | 8.7 | 0.00 | 0.00 | 0.00 | ||
| 20260507130627 | 71 | 237 | 7.0 | 9.6 | 0.00 | 0.00 | 0.00 | ||
| 20260507130226 | 71 | 241 | 4.3 | 6.1 | 0.00 | 0.00 | 0.00 | ||
| 20260507125824 | 70 | 253 | 5.2 | 7.8 | 0.00 | 0.00 | 0.00 | ||
| 20260507125422 | 71 | 226 | 5.2 | 8.7 | 0.00 | 0.00 | 0.00 | ||
| 20260507125021 | 71 | 256 | 5.2 | 8.7 | 0.00 | 0.00 | 0.00 | ||
| 20260507124620 | 70 | 244 | 7.0 | 8.7 | 0.00 | 0.00 | 0.00 | ||
| 20260507124218 | 71 | 222 | 4.3 | 7.8 | 0.00 | 0.00 | 0.00 | ||
| 20260507123816 | 70 | 223 | 4.3 | 6.1 | 0.00 | 0.00 | 0.00 | ||
| 20260507123415 | 70 | 262 | 6.1 | 11.3 | 0.00 | 0.00 | 0.00 | ||
| 20260507123013 | 70 | 277 | 7.8 | 11.3 | 0.00 | 0.00 | 0.00 | ||
| 20260507122605 | 70 | 262 | 6.1 | 9.6 | 0.00 | 0.00 | 0.00 | ||
| 20260507122202 | 71 | 269 | 7.0 | 10.4 | 0.00 | 0.00 | 0.00 | ||
| 20260507121801 | 71 | 270 | 7.0 | 10.4 | 0.00 | 0.00 | 0.00 | ||
| 20260507121400 | 71 | 261 | 5.2 | 8.7 | 0.00 | 0.00 | 0.00 | ||
| 20260507120958 | 71 | 271 | 5.2 | 7.8 | 0.00 | 0.00 | 0.00 | ||
| 20260507120556 | 70 | 288 | 7.0 | 9.6 | 0.00 | 0.00 | 0.00 | ||
| 20260507120154 | 71 | 272 | 6.1 | 8.7 | 0.00 | 0.00 | 0.00 |